Location: Düngen
(52.0952°N, 10.0219°E)
Time: 09:27:12
(UTC+00:00)

SPOT 3 Rocket - Visible Passes

Search period start: 09 June 2026 00:00
Search period end: 19 June 2026 00:00
Orbit: 774 x 790 km, 98.5° (Epoch: 9 June)

Date Brightness Start Highest point End Pass type
(mag) Time Alt. Az. Time Alt. Az. Time Alt. Az.
9 Jun 4.3 21:07:09 10° S 21:12:04 47° W 21:17:03 10° NNW visible
10 Jun 3.6 20:34:57 10° SSE 20:40:06 82° WSW 20:45:17 10° NNW visible
10 Jun 5.9 22:17:36 10° WSW 22:20:16 14° W 22:22:57 10° NW visible
11 Jun 5.3 21:43:46 10° SSW 21:47:58 25° W 21:52:11 10° NW visible
12 Jun 4.5 21:10:57 10° S 21:15:49 43° W 21:20:45 10° NNW visible
13 Jun 3.7 20:38:41 10° S 20:43:49 77° WSW 20:49:01 10° NNW visible
13 Jun 5.9 22:21:40 10° WSW 22:24:03 13° W 22:26:27 10° WNW visible
14 Jun 5.4 21:47:40 10° SW 21:51:44 23° W 21:55:50 10° NW visible
15 Jun 4.6 21:14:44 10° SSW 21:19:34 41° W 21:24:27 10° NNW visible
16 Jun 3.8 20:42:25 10° S 20:47:33 72° WSW 20:52:44 10° NNW visible
16 Jun 6.0 22:25:48 10° WSW 22:27:50 12° W 22:29:52 10° WNW visible
17 Jun 5.5 21:51:33 10° SW 21:55:29 22° W 21:59:28 10° NW visible
18 Jun 4.7 21:18:32 10° SSW 21:23:18 38° W 21:28:08 10° NNW visible
